Location: Newark
(49.8348°N, 24.0280°E)
Time: 19:58:12
(UTC+00:00)

S-56A Canister/Altair - Pass Details

Date: 26 January 2020
Orbit: 633 x 2499 km, 38.9° (Epoch: 19 February)

Event Time Altitude Azimuth Distance (km) Brightness Sun altitude
Rises 18:08:09 0° 224° (SW) 4,209 11.8 -28.9°
Reaches altitude 10° 18:12:13 10° 209° (SSW) 2,894 10.7 -29.5°
Enters shadow 18:15:15 18° 184° (S) 2,145 9.7 -30.0°
Maximum altitude 18:16:45 19° 166° (SSE) 1,958 - -30.3°
Drops below altitude 10° 18:20:27 10° 121° (ESE) 2,289 - -30.9°
Sets 18:23:12 0° 102° (ESE) 3,065 - -31.3°
